This is the latest recevied weather packets stored in our database for station/object DO8TBO-15. If no packets are shown the sender has not sent any weather packets the latest 1 day(s).
| Time | Temp. | Humidity | Pressure | Rain* | Wind** | Luminosity | Snow |
|---|---|---|---|---|---|---|---|
| 1778047545 | 12.78° C | 80% | 1005.8 hPa | 0 mm | - | - | - |
| 1778046338 | 12.78° C | 85% | 1005.7 hPa | 0 mm | - | - | - |
| 1778045160 | 12.78° C | 85% | 1005.8 hPa | 0 mm | - | - | - |
| 1778044557 | 12.78° C | 85% | 1005.8 hPa | 0 mm | - | - | - |
| 1778043953 | 12.22° C | 84% | 1005.9 hPa | 0 mm | - | - | - |
| 1778043349 | 12.22° C | 85% | 1005.9 hPa | 0 mm | - | - | - |
| 1778042142 | 12.22° C | 84% | 1005.8 hPa | 0 mm | - | - | - |
| 1778041538 | 12.22° C | 86% | 1005.6 hPa | 0 mm | - | - | - |
| 1778040934 | 12.22° C | 84% | 1005.7 hPa | 0 mm | - | - | - |
| 1778039153 | 12.78° C | 88% | 1005.5 hPa | 0 mm | - | - | - |
| 1778037945 | 12.78° C | 85% | 1005.5 hPa | 0 mm | - | - | - |
| 1778037341 | 12.78° C | 84% | 1005.5 hPa | 0 mm | - | - | - |
| 1778036738 | 12.22° C | 82% | 1005.5 hPa | 0 mm | - | - | - |
| 1778036138 | 12.78° C | 81% | 1005.6 hPa | 0 mm | - | - | - |
| 1778034956 | 12.78° C | 81% | 1005.6 hPa | 0.25 mm | - | - | - |
| 1778032541 | 12.78° C | 79% | 1005.6 hPa | 0.25 mm | - | - | - |
| 1778031333 | 12.78° C | 76% | 1005.8 hPa | 0 mm | - | - | - |
| 1778030156 | 12.78° C | 73% | 1005.8 hPa | 0 mm | - | - | - |
| 1778028949 | 12.78° C | 69% | 1006 hPa | 0 mm | - | - | - |
| 1778028345 | 12.78° C | 67% | 1006.1 hPa | 0 mm | - | - | - |
| 1778027742 | 12.78° C | 66% | 1006.1 hPa | 0 mm | - | - | - |
| 1778027137 | 12.78° C | 64% | 1006.3 hPa | 0 mm | - | - | - |
| 1778025960 | 12.78° C | 61% | 1006.4 hPa | 0 mm | - | - | - |
| 1778025356 | 12.78° C | 59% | 1006.4 hPa | 0 mm | - | - | - |
| 1778022337 | 12.78° C | 40% | 1006.4 hPa | 0 mm | - | - | - |
* Rain latest hour (hover to see other rain measurements)
** Current wind speed in m/s (hover to see current wind gust speed)